Time,TemperatureF,DewpointF,PressureIn,WindDirection,WindDirectionDegrees,WindSpeedMPH,WindSpeedGustMPH,Humidity,HourlyPrecipIn,Conditions,Clouds,dailyrainin,SoftwareType,DateUTC
2013-03-13 00:03:00,43.0,30.0,30.01,NW,304,3.0,8.0,60,0.00,,,0.56,,2013-03-13 04:03:00,
2013-03-13 00:13:00,43.0,30.0,30.01,NW,304,3.0,8.0,60,0.00,,,0.56,,2013-03-13 04:13:00,
2013-03-13 00:22:00,43.0,30.0,30.02,NW,321,2.0,6.0,61,0.00,,,0.55,,2013-03-13 04:22:00,
2013-03-13 00:32:00,43.0,30.0,30.02,NNW,345,1.0,4.0,61,0.00,,,0.55,,2013-03-13 04:32:00,
2013-03-13 00:43:00,43.0,30.0,30.02,NNW,345,1.0,4.0,61,0.00,,,0.55,,2013-03-13 04:43:00,
2013-03-13 00:53:00,42.0,30.0,30.02,NNE,32,1.0,3.0,62,0.00,,,0.55,,2013-03-13 04:53:00,
2013-03-13 01:02:00,42.0,30.0,30.02,NNW,339,3.0,10.0,61,0.00,,,0.55,,2013-03-13 05:02:00,
2013-03-13 01:12:00,42.0,30.0,30.02,NNW,339,3.0,10.0,61,0.00,,,0.55,,2013-03-13 05:12:00,
2013-03-13 01:22:00,43.0,30.0,30.01,North,5,2.0,9.0,61,0.00,,,0.51,,2013-03-13 05:22:00,
2013-03-13 01:32:00,42.0,30.0,29.99,NNW,327,2.0,7.0,61,0.00,,,0.51,,2013-03-13 05:32:00,
2013-03-13 01:42:00,42.0,30.0,29.99,NNW,327,2.0,7.0,61,0.00,,,0.51,,2013-03-13 05:42:00,
2013-03-13 01:52:00,42.0,30.0,29.99,NNW,344,2.0,8.0,62,0.00,,,0.51,,2013-03-13 05:52:00,
2013-03-13 02:02:00,42.0,30.0,29.99,NNE,12,1.0,6.0,63,0.00,,,0.51,,2013-03-13 06:02:00,
2013-03-13 02:12:00,42.0,30.0,29.99,NNE,12,1.0,6.0,63,0.00,,,0.51,,2013-03-13 06:12:00,
2013-03-13 02:23:00,42.0,31.0,29.98,North,351,1.0,3.0,64,0.00,,,0.47,,2013-03-13 06:23:00,
2013-03-13 02:32:00,41.0,30.0,29.99,North,349,0.0,2.0,64,0.00,,,0.47,,2013-03-13 06:32:00,
2013-03-13 02:42:00,41.0,30.0,29.99,North,349,0.0,2.0,64,0.00,,,0.47,,2013-03-13 06:42:00,
2013-03-13 02:53:00,41.0,30.0,29.98,North,349,0.0,1.0,64,0.00,,,0.47,,2013-03-13 06:53:00,
2013-03-13 03:02:00,41.0,30.0,29.97,ESE,117,2.0,8.0,64,0.00,,,0.47,,2013-03-13 07:02:00,
2013-03-13 03:12:00,41.0,30.0,29.97,ESE,117,2.0,8.0,64,0.00,,,0.47,,2013-03-13 07:12:00,
2013-03-13 03:23:00,42.0,30.0,29.97,West,261,1.0,4.0,63,0.00,,,0.42,,2013-03-13 07:23:00,
2013-03-13 03:32:00,41.0,30.0,29.97,West,259,1.0,3.0,65,0.00,,,0.42,,2013-03-13 07:32:00,
2013-03-13 03:42:00,41.0,30.0,29.97,West,259,1.0,3.0,65,0.00,,,0.42,,2013-03-13 07:42:00,
2013-03-13 03:53:00,41.0,30.0,29.96,SSW,201,3.0,4.0,65,0.00,,,0.42,,2013-03-13 07:53:00,
2013-03-13 04:03:00,42.0,30.0,29.96,West,278,8.0,13.0,61,0.00,,,0.42,,2013-03-13 08:03:00,
2013-03-13 04:12:00,42.0,30.0,29.96,West,278,8.0,13.0,61,0.00,,,0.42,,2013-03-13 08:12:00,
2013-03-13 04:23:00,43.0,30.0,29.96,WNW,289,4.0,12.0,59,0.00,,,0.30,,2013-03-13 08:23:00,
2013-03-13 04:32:00,44.0,30.0,29.97,West,279,6.0,10.0,58,0.00,,,0.30,,2013-03-13 08:32:00,
2013-03-13 04:43:00,44.0,30.0,29.97,West,279,6.0,10.0,58,0.00,,,0.30,,2013-03-13 08:43:00,
2013-03-13 04:54:00,43.0,29.0,29.98,WSW,249,3.0,13.0,57,0.00,,,0.30,,2013-03-13 08:54:00,
2013-03-13 05:02:00,43.0,29.0,29.98,WNW,292,3.0,12.0,58,0.00,,,0.30,,2013-03-13 09:02:00,
2013-03-13 05:12:00,43.0,29.0,29.98,WNW,292,3.0,12.0,58,0.00,,,0.30,,2013-03-13 09:12:00,
2013-03-13 05:22:00,43.0,27.0,29.98,East,93,7.0,10.0,53,0.00,,,0.20,,2013-03-13 09:22:00,
2013-03-13 05:32:00,43.0,27.0,29.98,WSW,250,3.0,11.0,52,0.00,,,0.20,,2013-03-13 09:32:00,
2013-03-13 05:42:00,43.0,27.0,29.98,WSW,250,3.0,11.0,52,0.00,,,0.20,,2013-03-13 09:42:00,
2013-03-13 05:52:00,42.0,26.0,29.99,WNW,294,2.0,7.0,52,0.00,,,0.20,,2013-03-13 09:52:00,
2013-03-13 06:02:00,42.0,25.0,29.99,WSW,252,2.0,9.0,51,0.00,,,0.20,,2013-03-13 10:02:00,
2013-03-13 06:12:00,42.0,25.0,29.99,WSW,252,2.0,9.0,51,0.00,,,0.20,,2013-03-13 10:12:00,
2013-03-13 06:22:00,42.0,25.0,30.00,NW,306,2.0,8.0,51,0.00,,,0.11,,2013-03-13 10:22:00,
2013-03-13 06:32:00,41.0,25.0,30.00,West,259,3.0,9.0,52,0.00,,,0.11,,2013-03-13 10:32:00,
2013-03-13 06:42:00,41.0,25.0,30.00,West,259,3.0,9.0,52,0.00,,,0.11,,2013-03-13 10:42:00,
2013-03-13 06:52:00,41.0,25.0,30.01,West,260,5.0,8.0,52,0.00,,,0.11,,2013-03-13 10:52:00,
2013-03-13 07:02:00,41.0,25.0,30.00,West,263,1.0,6.0,53,0.00,,,0.11,,2013-03-13 11:02:00,
2013-03-13 07:12:00,41.0,25.0,30.00,West,263,1.0,6.0,53,0.00,,,0.11,,2013-03-13 11:12:00,
2013-03-13 07:22:00,40.0,24.0,30.01,West,267,3.0,6.0,53,0.00,,,0.09,,2013-03-13 11:22:00,
2013-03-13 07:32:00,40.0,25.0,30.01,West,262,2.0,8.0,54,0.00,,,0.09,,2013-03-13 11:32:00,
2013-03-13 07:42:00,40.0,25.0,30.01,West,262,2.0,8.0,54,0.00,,,0.09,,2013-03-13 11:42:00,
2013-03-13 07:53:00,40.0,26.0,30.01,WSW,246,3.0,5.0,56,0.00,,,0.09,,2013-03-13 11:53:00,
2013-03-13 08:02:00,40.0,26.0,30.01,WSW,248,3.0,5.0,56,0.00,,,0.09,,2013-03-13 12:02:00,
2013-03-13 08:12:00,40.0,26.0,30.01,WSW,248,3.0,5.0,56,0.00,,,0.09,,2013-03-13 12:12:00,
2013-03-13 08:22:00,40.0,26.0,30.01,WSW,244,2.0,4.0,56,0.00,,,0.01,,2013-03-13 12:22:00,
2013-03-13 08:32:00,40.0,26.0,30.01,WSW,244,3.0,6.0,56,0.00,,,0.01,,2013-03-13 12:32:00,
2013-03-13 08:42:00,40.0,26.0,30.01,WSW,244,3.0,6.0,56,0.00,,,0.01,,2013-03-13 12:42:00,
2013-03-13 08:53:00,41.0,26.0,30.02,WSW,245,2.0,4.0,55,0.00,,,0.01,,2013-03-13 12:53:00,
2013-03-13 09:02:00,42.0,26.0,30.01,West,269,3.0,5.0,53,0.00,,,0.01,,2013-03-13 13:02:00,
2013-03-13 09:12:00,42.0,26.0,30.01,West,269,3.0,5.0,53,0.00,,,0.01,,2013-03-13 13:12:00,
2013-03-13 09:22:00,42.0,26.0,30.02,West,260,4.0,11.0,53,0.00,,,0.01,,2013-03-13 13:22:00,
2013-03-13 09:33:00,42.0,26.0,30.01,WSW,246,4.0,10.0,52,0.00,,,0.01,,2013-03-13 13:33:00,
2013-03-13 09:43:00,42.0,26.0,30.01,WSW,246,4.0,10.0,52,0.00,,,0.01,,2013-03-13 13:43:00,
2013-03-13 09:53:00,42.0,26.0,30.02,WSW,253,4.0,9.0,52,0.00,,,0.01,,2013-03-13 13:53:00,
2013-03-13 10:02:00,43.0,27.0,30.02,SW,234,5.0,11.0,52,0.00,,,0.01,,2013-03-13 14:02:00,
2013-03-13 10:12:00,43.0,27.0,30.02,SW,234,5.0,11.0,52,0.00,,,0.01,,2013-03-13 14:12:00,
2013-03-13 10:22:00,43.0,26.0,30.02,NW,315,5.0,13.0,51,0.00,,,0.01,,2013-03-13 14:22:00,
2013-03-13 10:33:00,43.0,27.0,30.02,West,262,9.0,15.0,52,0.00,,,0.01,,2013-03-13 14:33:00,
2013-03-13 10:42:00,43.0,27.0,30.02,West,262,9.0,15.0,52,0.00,,,0.01,,2013-03-13 14:42:00,
2013-03-13 10:53:00,44.0,28.0,30.03,West,266,8.0,14.0,52,0.00,,,0.01,,2013-03-13 14:53:00,
2013-03-13 11:03:00,44.0,28.0,30.02,ESE,104,4.0,15.0,52,0.00,,,0.01,,2013-03-13 15:03:00,
2013-03-13 11:12:00,44.0,28.0,30.02,ESE,104,4.0,15.0,52,0.00,,,0.01,,2013-03-13 15:12:00,
2013-03-13 11:22:00,45.0,27.0,30.02,West,272,7.0,16.0,50,0.00,,,0.01,,2013-03-13 15:22:00,
2013-03-13 11:32:00,46.0,27.0,30.02,SW,221,5.0,15.0,48,0.00,,,0.01,,2013-03-13 15:32:00,
2013-03-13 11:43:00,46.0,27.0,30.02,SW,221,5.0,15.0,48,0.00,,,0.01,,2013-03-13 15:43:00,
2013-03-13 11:53:00,45.0,26.0,30.02,WSW,256,6.0,13.0,47,0.00,,,0.01,,2013-03-13 15:53:00,
2013-03-13 12:03:00,43.0,28.0,30.03,WSW,253,7.0,20.0,55,0.00,,,0.01,,2013-03-13 16:03:00,
2013-03-13 12:12:00,43.0,28.0,30.03,WSW,253,7.0,20.0,55,0.00,,,0.01,,2013-03-13 16:12:00,
2013-03-13 12:22:00,44.0,28.0,30.02,WSW,254,4.0,18.0,53,0.00,,,0.01,,2013-03-13 16:22:00,
2013-03-13 12:32:00,44.0,29.0,30.02,West,266,3.0,18.0,55,0.00,,,0.01,,2013-03-13 16:32:00,
2013-03-13 12:42:00,44.0,29.0,30.02,West,266,3.0,18.0,55,0.00,,,0.01,,2013-03-13 16:42:00,
2013-03-13 12:52:00,44.0,27.0,30.01,WSW,246,8.0,16.0,51,0.00,,,0.01,,2013-03-13 16:52:00,
2013-03-13 13:03:00,46.0,27.0,30.01,WSW,252,8.0,13.0,47,0.00,,,0.01,,2013-03-13 17:03:00,
2013-03-13 13:12:00,46.0,27.0,30.01,WSW,252,8.0,13.0,47,0.00,,,0.01,,2013-03-13 17:12:00,
2013-03-13 13:23:00,44.0,29.0,30.01,West,259,8.0,20.0,56,0.00,,,0.00,,2013-03-13 17:23:00,
2013-03-13 13:32:00,42.0,30.0,30.02,NW,317,4.0,17.0,63,0.00,,,0.00,,2013-03-13 17:32:00,
2013-03-13 13:42:00,42.0,30.0,30.02,NW,317,4.0,17.0,63,0.00,,,0.00,,2013-03-13 17:42:00,
2013-03-13 13:53:00,42.0,30.0,30.02,ENE,74,10.0,24.0,63,0.00,,,0.00,,2013-03-13 17:53:00,
2013-03-13 14:02:00,40.0,31.0,30.03,West,275,4.0,13.0,69,0.00,,,0.00,,2013-03-13 18:02:00,
2013-03-13 14:12:00,40.0,31.0,30.03,West,275,4.0,13.0,69,0.00,,,0.00,,2013-03-13 18:12:00,
2013-03-13 14:22:00,42.0,28.0,30.02,SSW,201,5.0,17.0,57,0.00,,,0.00,,2013-03-13 18:22:00,
2013-03-13 14:33:00,44.0,28.0,30.01,West,269,8.0,17.0,53,0.00,,,0.00,,2013-03-13 18:33:00,
2013-03-13 14:42:00,44.0,28.0,30.01,West,269,8.0,17.0,53,0.00,,,0.00,,2013-03-13 18:42:00,
2013-03-13 14:52:00,44.0,28.0,30.00,WSW,251,2.0,12.0,52,0.00,,,0.00,,2013-03-13 18:52:00,
2013-03-13 15:02:00,45.0,26.0,30.00,WSW,238,13.0,20.0,47,0.00,,,0.00,,2013-03-13 19:02:00,
2013-03-13 15:12:00,45.0,26.0,30.00,WSW,238,13.0,20.0,47,0.00,,,0.00,,2013-03-13 19:12:00,
2013-03-13 15:22:00,44.0,23.0,29.99,WNW,289,11.0,21.0,43,0.00,,,0.00,,2013-03-13 19:22:00,
2013-03-13 15:32:00,43.0,22.0,30.00,WNW,287,10.0,22.0,43,0.00,,,0.00,,2013-03-13 19:32:00,
2013-03-13 15:43:00,43.0,22.0,30.00,WNW,287,10.0,22.0,43,0.00,,,0.00,,2013-03-13 19:43:00,
2013-03-13 15:53:00,45.0,23.0,30.00,West,272,10.0,24.0,42,0.00,,,0.00,,2013-03-13 19:53:00,
2013-03-13 16:02:00,45.0,24.0,30.00,West,264,9.0,21.0,43,0.00,,,0.00,,2013-03-13 20:02:00,
2013-03-13 16:12:00,45.0,24.0,30.00,West,264,9.0,21.0,43,0.00,,,0.00,,2013-03-13 20:12:00,
2013-03-13 16:22:00,46.0,23.0,30.00,West,279,5.0,20.0,40,0.00,,,0.00,,2013-03-13 20:22:00,
2013-03-13 16:32:00,46.0,22.0,30.01,WSW,244,7.0,16.0,38,0.00,,,0.00,,2013-03-13 20:32:00,
2013-03-13 16:42:00,46.0,22.0,30.01,WSW,244,7.0,16.0,38,0.00,,,0.00,,2013-03-13 20:42:00,
2013-03-13 16:52:00,45.0,20.0,30.02,NW,309,10.0,20.0,37,0.00,,,0.00,,2013-03-13 20:52:00,
2013-03-13 17:02:00,44.0,19.0,30.02,WSW,250,9.0,20.0,36,0.00,,,0.00,,2013-03-13 21:02:00,
2013-03-13 17:12:00,44.0,19.0,30.02,WSW,250,9.0,20.0,36,0.00,,,0.00,,2013-03-13 21:12:00,
2013-03-13 17:22:00,43.0,20.0,30.02,West,264,16.0,22.0,40,0.00,,,0.00,,2013-03-13 21:22:00,
2013-03-13 17:33:00,43.0,22.0,30.03,WSW,254,7.0,22.0,42,0.00,,,0.00,,2013-03-13 21:33:00,
2013-03-13 17:42:00,43.0,22.0,30.03,WSW,254,7.0,22.0,42,0.00,,,0.00,,2013-03-13 21:42:00,
2013-03-13 17:52:00,43.0,21.0,30.04,WSW,254,8.0,17.0,41,0.00,,,0.00,,2013-03-13 21:52:00,
2013-03-13 18:02:00,41.0,26.0,30.06,NNE,32,11.0,24.0,55,0.00,,,0.00,,2013-03-13 22:02:00,
2013-03-13 18:12:00,41.0,26.0,30.06,NNE,32,11.0,24.0,55,0.00,,,0.00,,2013-03-13 22:12:00,
2013-03-13 18:22:00,40.0,23.0,30.06,East,98,7.0,17.0,51,0.00,,,0.00,,2013-03-13 22:22:00,
2013-03-13 18:32:00,40.0,21.0,30.07,NNE,28,4.0,12.0,47,0.00,,,0.00,,2013-03-13 22:32:00,
2013-03-13 18:42:00,40.0,21.0,30.07,NNE,28,4.0,12.0,47,0.00,,,0.00,,2013-03-13 22:42:00,
2013-03-13 18:52:00,40.0,22.0,30.08,West,268,7.0,16.0,48,0.00,,,0.00,,2013-03-13 22:52:00,
2013-03-13 19:02:00,39.0,25.0,30.09,East,83,5.0,12.0,57,0.00,,,0.00,,2013-03-13 23:02:00,
2013-03-13 19:12:00,39.0,25.0,30.09,East,83,5.0,12.0,57,0.00,,,0.00,,2013-03-13 23:12:00,
2013-03-13 19:22:00,38.0,22.0,30.09,ENE,65,6.0,13.0,53,0.00,,,0.00,,2013-03-13 23:22:00,
2013-03-13 19:32:00,38.0,23.0,30.10,South,181,5.0,17.0,55,0.00,,,0.00,,2013-03-13 23:32:00,
2013-03-13 19:42:00,38.0,23.0,30.10,South,181,5.0,17.0,55,0.00,,,0.00,,2013-03-13 23:42:00,
2013-03-13 19:52:00,37.0,23.0,30.11,NW,311,3.0,13.0,56,0.00,,,0.00,,2013-03-13 23:52:00,
2013-03-13 20:02:00,36.0,21.0,30.11,WNW,286,3.0,14.0,55,0.00,,,0.00,,2013-03-14 00:02:00,
2013-03-13 20:13:00,36.0,21.0,30.11,WNW,286,3.0,14.0,55,0.00,,,0.00,,2013-03-14 00:13:00,
2013-03-13 20:22:00,37.0,21.0,30.11,ESE,107,9.0,20.0,53,0.00,,,0.00,,2013-03-14 00:22:00,
2013-03-13 20:32:00,36.0,22.0,30.12,North,5,5.0,15.0,56,0.00,,,0.00,,2013-03-14 00:32:00,
2013-03-13 20:42:00,36.0,22.0,30.12,North,5,5.0,15.0,56,0.00,,,0.00,,2013-03-14 00:42:00,
2013-03-13 20:52:00,36.0,19.0,30.14,SSE,161,3.0,12.0,49,0.00,,,0.00,,2013-03-14 00:52:00,
2013-03-13 21:02:00,36.0,19.0,30.14,WSW,248,7.0,22.0,49,0.00,,,0.00,,2013-03-14 01:02:00,
2013-03-13 21:12:00,36.0,19.0,30.14,WSW,248,7.0,22.0,49,0.00,,,0.00,,2013-03-14 01:12:00,
2013-03-13 21:23:00,35.0,17.0,30.14,SW,223,5.0,13.0,48,0.00,,,0.00,,2013-03-14 01:23:00,
2013-03-13 21:32:00,35.0,16.0,30.14,West,273,6.0,15.0,46,0.00,,,0.00,,2013-03-14 01:32:00,
2013-03-13 21:42:00,35.0,16.0,30.14,West,273,6.0,15.0,46,0.00,,,0.00,,2013-03-14 01:42:00,
2013-03-13 21:53:00,35.0,17.0,30.15,NE,40,6.0,13.0,47,0.00,,,0.00,,2013-03-14 01:53:00,
2013-03-13 22:02:00,34.0,16.0,30.16,ENE,65,4.0,13.0,48,0.00,,,0.00,,2013-03-14 02:02:00,
2013-03-13 22:12:00,34.0,16.0,30.16,ENE,65,4.0,13.0,48,0.00,,,0.00,,2013-03-14 02:12:00,
2013-03-13 22:22:00,35.0,18.0,30.16,ENE,69,4.0,11.0,49,0.00,,,0.00,,2013-03-14 02:22:00,
2013-03-13 22:32:00,34.0,16.0,30.16,NW,304,7.0,20.0,48,0.00,,,0.00,,2013-03-14 02:32:00,
2013-03-13 22:42:00,34.0,16.0,30.16,NW,304,7.0,20.0,48,0.00,,,0.00,,2013-03-14 02:42:00,
2013-03-13 22:52:00,34.0,16.0,30.16,NW,304,7.0,20.0,48,0.00,,,0.00,,2013-03-14 02:52:00,
2013-03-13 23:02:00,34.0,16.0,30.17,NE,49,5.0,14.0,47,0.00,,,0.00,,2013-03-14 03:02:00,
2013-03-13 23:12:00,34.0,16.0,30.17,NE,49,5.0,14.0,47,0.00,,,0.00,,2013-03-14 03:12:00,
2013-03-13 23:23:00,34.0,16.0,30.17,NE,44,4.0,17.0,48,0.00,,,0.00,,2013-03-14 03:23:00,
2013-03-13 23:32:00,33.0,16.0,30.18,West,281,7.0,13.0,49,0.00,,,0.00,,2013-03-14 03:32:00,
2013-03-13 23:42:00,33.0,16.0,30.18,West,281,7.0,13.0,49,0.00,,,0.00,,2013-03-14 03:42:00,
2013-03-13 23:53:00,33.0,16.0,30.17,West,263,6.0,14.0,50,0.00,,,0.00,,2013-03-14 03:53:00,